Tracking 29799 objects as of 11-Oct-2024
HD Live streaming from Space Station
objects crossing your sky now

SITRO-AIS-36

Track SITRO-AIS-36 now!
10-day predictions
SITRO-AIS-36 is classified as:


NORAD ID: 59059
Int'l Code: 2024-039J
Perigee: 447.9 km
Apogee: 469.5 km
Inclination: 97.4 °
Period: 93.6 minutes
Semi major axis: 6829 km
RCS: Unknown
Launch date: February 29, 2024
Source: (TBD)
Launch site: VOSTOCHNY COSMODROME (VOSTO)

Uplink (MHz):
Downlink (MHz): 401.140
Beacon (MHz):
Mode: 2k4 GMSK_USP
Call sign:
Status: Unknown

Your satellite tracking list
Your tracking list is empty




NASA's NSSDC Master Catalog

Two Line Element Set (TLE):
1 59059U 24039J   24285.19586930  .00286831  00000-0  73387-2 0  9996
2 59059  97.4027 247.1076 0015860 149.3377 210.8798 15.38161606 34368
Source of the keplerian elements: AFSPC